This demonstration page uses our WeatherBlox Daily Observations layout. Learn more.

Left ArrowRight Arrow

34.74481, -87.66753

Hourly Observations for June 2, 2020

Temp ( °F °C ) Dew Point ( °F °C ) Humidity (%) Winds ( mph kmh ) Pressure ( in mb ) Visibility ( mi km ) Precip ( " mm )
12:53 am 00:53 Clear 70 21.1 66 18.9 87 87 SE 3 6 30.11 1020 10 16 0.00 0.00
1:53 am 01:53 Clear 69 20.6 65 18.3 87 87 Calm 30.10 1019 10 16 0.00 0.00
2:53 am 02:53 Clear 70 21.1 65 18.3 84 84 E 3 6 30.10 1019 10 16 0.00 0.00
3:53 am 03:53 Clear 70 21.1 65 18.3 84 84 SE 5 7 30.10 1019 10 16 0.00 0.00
4:53 am 04:53 Mostly Cloudy 70 21.1 65 18.3 84 84 SE 3 6 30.11 1020 10 16 0.00 0.00
5:53 am 05:53 Partly Cloudy 70 21.1 65 18.3 84 84 SE 5 7 30.12 1020 10 16 0.00 0.00
6:53 am 06:53 Mostly Sunny 72 22.2 66 18.9 82 82 SE 3 6 30.14 1021 10 16 0.00 0.00
7:53 am 07:53 Sunny 76 24.4 66 18.9 72 72 SSE 5 7 30.14 1021 10 16 0.00 0.00
8:53 am 08:53 Partly Cloudy 79 26.1 66 18.9 65 65 S 7 11 30.15 1021 10 16 0.00 0.00
9:53 am 09:53 Sunny 82 27.8 68 20 63 63 S 6 9 30.14 1021 10 16 0.00 0.00
10:53 am 10:53 Mostly Sunny 85 29.4 70 21.1 61 61 VRB 7 11 30.14 1021 10 16 0.00 0.00
11:53 am 11:53 Partly Cloudy 84 28.9 67 19.4 57 57 W 7 11 30.12 1020 10 16 0.00 0.00
12:53 pm 12:53 Partly Cloudy 88 31.1 66 18.9 48 48 VRB 6 9 30.10 1019 10 16 0.00 0.00
1:53 pm 13:53 Partly Cloudy 89 31.7 65 18.3 45 45 VRB 5 7 30.09 1019 10 16 0.00 0.00
2:53 pm 14:53 Partly Cloudy 89 31.7 63 17.2 42 42 Calm 30.06 1018 10 16 0.00 0.00
3:53 pm 15:53 Mostly Sunny 88 31.1 61 16.1 40 40 Calm 30.05 1018 10 16 0.00 0.00
4:53 pm 16:53 Mostly Cloudy 91 32.8 63 17.2 39 39 Calm 30.03 1017 10 16 0.00 0.00
5:53 pm 17:53 Mostly Cloudy 89 31.7 63 17.2 42 42 SW 6 9 30.02 1017 10 16 0.00 0.00
6:53 pm 18:53 Partly Cloudy 87 30.6 64 17.8 46 46 WSW 5 7 30.03 1017 10 16 0.00 0.00
7:53 pm 19:53 Sunny 84 28.9 66 18.9 55 55 Calm 30.03 1017 10 16 0.00 0.00
8:53 pm 20:53 Partly Cloudy 78 25.6 69 20.6 74 74 Calm 30.04 1017 10 16 0.00 0.00
9:53 pm 21:53 Clear 75 23.9 69 20.6 82 82 SSE 5 7 30.06 1018 10 16 0.00 0.00
10:53 pm 22:53 Partly Cloudy 76 24.4 70 21.1 82 82 Calm 30.05 1018 10 16 0.00 0.00
11:53 pm 23:53 Mostly Clear 74 23.3 69 20.6 85 85 Calm 30.04 1017 10 16 0.00 0.00

Powered by AerisWeather